Location: Unspecified
(43.4354°N, 0.0000°E)
Time: 18:46:57
(UTC+00:00)

Transit 2A - Pass Details

Date: 21 June 2019
Orbit: 597 x 962 km, 66.7° (Epoch: 24 August)

Event Time Altitude Azimuth Distance (km) Brightness Sun altitude
Rises 22:41:29 0° 160° (SSE) 3,597 - -20.6°
Reaches altitude 10° 22:44:55 10° 142° (SE) 2,681 - -20.8°
Exits shadow 22:48:37 17° 105° (ESE) 2,214 8.1 -21.0°
Maximum altitude 22:48:48 17° 103° (ESE) 2,213 8.1 -21.0°
Drops below altitude 10° 22:52:42 10° 65° (ENE) 2,689 8.9 -21.3°
Sets 22:56:08 0° 47° (NE) 3,613 9.8 -21.4°
